This is the latest recevied weather packets stored in our database for station/object W4WYD-2. If no packets are shown the sender has not sent any weather packets the latest 10 day(s).
| Time | Temp. | Humidity | Pressure | Rain* | Wind** | Luminosity | Snow |
|---|---|---|---|---|---|---|---|
| 1787774352 | 28.33° C | 72% | 1015.3 hPa | 0 mm | - | 720 W/m² | - |
| 1787774048 | 28.33° C | 73% | 1015.3 hPa | 0 mm | - | 736 W/m² | - |
| 1787773746 | 27.78° C | 75% | 1015.4 hPa | 0 mm | - | 718 W/m² | - |
| 1787773441 | 27.22° C | 81% | 1015.3 hPa | 0 mm | - | 777 W/m² | - |
| 1787773136 | 26.67° C | 80% | 1015.5 hPa | 0 mm | - | 782 W/m² | - |
| 1787772833 | 26.11° C | 79% | 1015.5 hPa | 0 mm | - | 665 W/m² | - |
| 1787772531 | 25.56° C | 83% | 1015.5 hPa | 0 mm | - | 701 W/m² | - |
| 1787772231 | 25° C | 86% | 1015.8 hPa | 0 mm | - | 487 W/m² | - |
| 1787771930 | 24.44° C | 93% | 1015.6 hPa | 0 mm | - | 669 W/m² | - |
| 1787771624 | 23.33° C | 93% | 1015.7 hPa | 0 mm | - | 426 W/m² | - |
| 1787771319 | 23.33° C | 96% | 1015.8 hPa | 0 mm | - | 287 W/m² | - |
| 1787771014 | 22.78° C | 98% | 1016 hPa | 0 mm | - | 289 W/m² | - |
| 1787770713 | 22.78° C | 98% | 1016 hPa | 0 mm | - | 281 W/m² | - |
| 1787770407 | 22.22° C | 98% | 1016.2 hPa | 0 mm | - | 216 W/m² | - |
| 1787770106 | 22.22° C | 98% | 1016.3 hPa | 0 mm | - | 177 W/m² | - |
| 1787769800 | 22.22° C | 99% | 1016.5 hPa | 0 mm | - | 135 W/m² | - |
| 1787769500 | 21.67° C | 99% | 1016.5 hPa | 0 mm | - | 104 W/m² | - |
| 1787769194 | 21.67° C | 99% | 1016.7 hPa | 0 mm | - | 83 W/m² | - |
| 1787768888 | 21.67° C | 99% | 1016.6 hPa | 0 mm | - | 77 W/m² | - |
| 1787768585 | 21.67° C | 99% | 1016.5 hPa | 0 mm | - | 76 W/m² | - |
| 1787768281 | 21.67° C | 99% | 1016.7 hPa | 0 mm | - | 76 W/m² | - |
| 1787767977 | 21.67° C | 99% | 1016.7 hPa | 0 mm | - | 83 W/m² | - |
| 1787767677 | 21.67° C | 99% | 1016.7 hPa | 0 mm | - | 90 W/m² | - |
| 1787767376 | 21.11° C | 99% | 1017 hPa | 0 mm | - | 93 W/m² | - |
| 1787767075 | 21.11° C | 99% | 1017 hPa | 0 mm | - | 98 W/m² | - |
* Rain latest hour (hover to see other rain measurements)
** Current wind speed in m/s (hover to see current wind gust speed)